DECAYED
Showing default

STARLINER CALYPSO 1, 59968 (Decayed)

Orbit data source: Space-Track

STARLINER CALYPSO 1, 59968 was an American payload satellite in LEO that was launched on Wed, 05 Jun 2024 UTC via an ATLAS V N22 launch vehicle from the Air Force Eastern Test Range (AFETR). Payload-class satellites include a variety of spacecraft equipped with specific instruments for various scientific and technological missions. These include communications satellites like Starlink; space stations such as the ISS; scientific satellites like the Hubble; Earth observation satellites from companies like Planet Labs, Umbra, and HawkEye 360; GPS; miniature CubeSats for education and research; and military/defense satellites.

Loading next visibility...
Identifier
59968, 2024-109A
Orbit
Decayed
Last TLE update
10 months ago
Origin
Flag of USBoeing Commercial Crew Program (US)
Manufacturer
Boeing C3PF
Mission
Decayed spacecraft
Bus & Motor
CST-100, Unknown motor
Mass
8,000 kg wet, 8,000 kg dry
Launch date (UTC)
2024-06-05 (1 year ago)
Launch vehicle
ATLAS V N22
Launch site
Air Force Eastern Test Range (AFETR)
Object type
Payload
Rocket body
Debris
Shape & HBR
Unknown
Radar Cross Section
Large (>1 m²)

Expand to show TLE details & history

TLE from 10 months ago
0 STARLINER CALYPSO 1
1 59968U 24109A   24253.87704602  .00012401  00000-0  23421-3 0  9996
2 59968  51.6395 255.8321 0007834 334.1073  94.7593 15.48815630471007
Epoch: 2024-09-09T21:02Z
TLE epoch observation values (Epoch: 2024-09-09T21:02:56.776Z)
Latitude
47.18903°
Longitude
8.86614°
Altitude
425.642 km
Speed
7.662 km/s
True Right ascension
20h 56m 00s
True Declination
47° 00' 33"
Sunlit
Object was in full shadow at epoch
Visualization orbit readout
Visualization observer readout
Orbital elements
Apogee altitude
426.024 km
Perigee altitude
415.371 km
Semi-major axis
6,798.834 km
Eccentricity
0.00078
Inclination
51.6395°
RAAN
255.8321°
Arg. of periapsis
334.1073°
True anomaly
Unknown
Mean anomaly
94.7593°
Eccentric anomaly
Unknown
Mean motion
3.87161 °/min
Orbital period
92.98 mins
BSTAR
0.00023421
Loading maneuver chart data...
Loading SW <> Apogee altitude chart data...
Loading historical data...
Loading historical data...
Loading historical data...
Loading historical data...
Loading historical data...
Loading historical data...
Loading historical data...
Other satellites on launch #109 in the year 2024 (2024-06-05 UTC)

STARLINER CALYPSO 1 Visibility forecast

Observer location: undefined°, undefined°

Span
Click to sort rows by Start time (UTC) header in descending order
Start Az.
Max El. time (UTC)
Max El. Az.
Max El.
End time (UTC)
End Az.
5 mins2025-07-09 10:22:22.178Z284.256° WNW2025-07-09 10:24:22.178Z234.013° WSW28.605°2025-07-09 10:27:22.178Z158.798° S
5 mins2025-07-10 02:59:22.178Z233.874° WSW2025-07-10 03:01:22.178Z31.706° NE44.57°2025-07-10 03:04:22.178Z52.055° ENE
4 mins2025-07-10 07:50:22.178Z338.667° N2025-07-10 07:52:22.178Z21.105° NNE17.428°2025-07-10 07:54:22.178Z63.626° ENE
|